"Period start","avg(HW err(1)/warn(2) (#))","avg(Visibility (m))","avg(Weather code (#))","avg(Precip intensity (mm/h))","min(HW err(1)/warn(2) (#))","max(HW err(1)/warn(2) (#))","std(HW err(1)/warn(2) (#))","med(HW err(1)/warn(2) (#))","min(Visibility (m))","max(Visibility (m))","std(Visibility (m))","med(Visibility (m))","min(Weather code (#))","max(Weather code (#))","std(Weather code (#))","med(Weather code (#))","min(Precip intensity (mm/h))","max(Precip intensity (mm/h))","std(Precip intensity (mm/h))","med(Precip intensity (mm/h))"
2016-10-01 00:00:00,2,49934,0,0.00,2,2,0,2,49339,50000,198,50000,0,0,0,0,0.00,0.00,0.00,0.00
2016-10-01 00:10:00,2,50000,0,0.00,2,2,0,2,50000,50000,0,50000,0,0,0,0,0.00,0.00,0.00,0.00
2016-10-01 00:20:00,2,50000,0,0.00,2,2,0,2,50000,50000,0,50000,0,0,0,0,0.00,0.00,0.00,0.00
2016-10-01 00:30:00,2,49886,0,0.00,2,2,0,2,48862,50000,341,50000,0,0,0,0,0.00,0.00,0.00,0.00
2016-10-01 00:40:00,2,49646,0,0.00,2,2,0,2,48154,50000,610,50000,0,0,0,0,0.00,0.00,0.00,0.00
2016-10-01 00:50:00,2,49712,0,0.00,2,2,0,2,48263,50000,591,50000,0,0,0,0,0.00,0.00,0.00,0.00
2016-10-01 01:00:00,2,49947,0,0.00,2,2,0,2,49471,50000,159,50000,0,0,0,0,0.00,0.00,0.00,0.00
2016-10-01 01:10:00,2,50000,0,0.00,2,2,0,2,50000,50000,0,50000,0,0,0,0,0.00,0.00,0.00,0.00
2016-10-01 01:20:00,2,49998,0,0.00,2,2,0,2,49978,50000,7,50000,0,0,0,0,0.00,0.00,0.00,0.00
2016-10-01 01:30:00,2,50000,0,0.00,2,2,0,2,50000,50000,0,50000,0,0,0,0,0.00,0.00,0.00,0.00
2016-10-01 01:40:00,2,50000,0,0.00,2,2,0,2,50000,50000,0,50000,0,0,0,0,0.00,0.00,0.00,0.00
2016-10-01 01:50:00,2,49242,0,0.00,2,2,0,2,46420,50000,1267,50000,0,0,0,0,0.00,0.00,0.00,0.00
2016-10-01 02:00:00,2,49202,0,0.00,2,2,0,2,46411,50000,1185,50000,0,0,0,0,0.00,0.00,0.00,0.00
2016-10-01 02:10:00,2,49897,0,0.00,2,2,0,2,48966,50000,310,50000,0,0,0,0,0.00,0.00,0.00,0.00
2016-10-01 02:20:00,2,48257,0,0.00,2,2,0,2,40692,50000,3350,50000,0,0,0,0,0.00,0.00,0.00,0.00
2016-10-01 02:30:00,2,35940,0,0.00,2,2,0,2,16262,50000,11657,40071,0,0,0,0,0.00,0.00,0.00,0.00
2016-10-01 02:40:00,2,39669,0,0.00,2,2,0,2,30208,46575,5756,42004,0,0,0,0,0.00,0.00,0.00,0.00
2016-10-01 02:50:00,2,48586,0,0.00,2,2,0,2,44036,50000,2056,49914,0,0,0,0,0.00,0.00,0.00,0.00
2016-10-01 03:00:00,2,46869,0,0.00,2,2,0,2,39952,50000,3197,47226,0,0,0,0,0.00,0.00,0.00,0.00
2016-10-01 03:10:00,2,45901,0,0.00,2,2,0,2,29205,50000,7422,50000,0,0,0,0,0.00,0.00,0.00,0.00
2016-10-01 03:20:00,2,47458,0,0.00,2,2,0,2,41877,50000,2981,49110,0,0,0,0,0.00,0.00,0.00,0.00
2016-10-01 03:30:00,2,41856,0,0.00,2,2,0,2,11718,50000,12049,48204,0,0,0,0,0.00,0.00,0.00,0.00
2016-10-01 03:40:00,2,3432,37,0.86,2,2,0,2,1184,7186,1836,2838,0,71,28,40,0.00,4.45,1.34,0.30
2016-10-01 03:50:00,2,20141,53,0.42,2,2,0,2,1597,50000,17434,13810,10,71,28,71,0.00,1.55,0.62,0.03
2016-10-01 04:00:00,2,48389,3,0.00,2,2,0,2,42879,50000,2555,50000,0,10,5,0,0.00,0.00,0.00,0.00
2016-10-01 04:10:00,2,48471,0,0.00,2,2,0,2,40219,50000,3063,49958,0,0,0,0,0.00,0.00,0.00,0.00
2016-10-01 04:20:00,2,49309,0,0.00,2,2,0,2,43509,50000,1937,50000,0,0,0,0,0.00,0.00,0.00,0.00
2016-10-01 04:30:00,2,30228,29,0.07,2,2,0,2,3164,50000,17899,28142,0,71,31,20,0.00,0.65,0.19,0.00
2016-10-01 04:40:00,2,47142,0,0.00,2,2,0,2,33072,50000,5489,50000,0,0,0,0,0.00,0.00,0.00,0.00
2016-10-01 04:50:00,2,49035,0,0.00,2,2,0,2,43199,50000,2123,50000,0,0,0,0,0.00,0.00,0.00,0.00
2016-10-01 05:00:00,2,49847,0,0.00,2,2,0,2,48811,50000,360,50000,0,0,0,0,0.00,0.00,0.00,0.00
2016-10-01 05:10:00,2,49478,0,0.00,2,2,0,2,46255,50000,1148,50000,0,0,0,0,0.00,0.00,0.00,0.00
2016-10-01 05:20:00,2,37086,0,0.00,2,2,0,2,9347,50000,14108,39592,0,0,0,0,0.00,0.00,0.00,0.00
2016-10-01 05:30:00,2,29943,8,0.23,2,2,0,2,4519,50000,16975,32754,0,41,16,0,0.00,1.20,0.46,0.00
2016-10-01 05:40:00,2,31666,34,0.06,2,2,0,2,10973,50000,14828,28050,0,54,23,41,0.00,0.30,0.09,0.00
2016-10-01 05:50:00,2,23437,16,0.01,2,2,0,2,10589,45001,11479,19236,0,41,20,0,0.00,0.05,0.02,0.00
2016-10-01 06:00:00,2,25232,0,0.00,2,2,0,2,8916,47754,13537,20206,0,0,0,0,0.00,0.00,0.00,0.00
2016-10-01 06:10:00,2,41499,0,0.00,2,2,0,2,21619,50000,11320,49202,0,0,0,0,0.00,0.00,0.00,0.00
2016-10-01 06:20:00,2,41113,0,0.00,2,2,0,2,20159,50000,11402,48250,0,0,0,0,0.00,0.00,0.00,0.00
2016-10-01 06:30:00,2,27197,30,0.02,2,2,0,2,12077,50000,12135,24247,0,54,20,40,0.00,0.10,0.03,0.00
2016-10-01 06:40:00,2,42337,0,0.00,2,2,0,2,34913,50000,4125,42062,0,0,0,0,0.00,0.00,0.00,0.00
2016-10-01 06:50:00,2,41981,0,0.00,2,2,0,2,25709,50000,7976,42746,0,0,0,0,0.00,0.00,0.00,0.00
2016-10-01 07:00:00,2,49197,0,0.00,2,2,0,2,45655,50000,1367,49953,0,0,0,0,0.00,0.00,0.00,0.00
2016-10-01 07:10:00,2,28841,19,0.05,2,2,0,2,3741,50000,17976,30834,0,71,25,0,0.00,0.20,0.08,0.00
2016-10-01 07:20:00,2,27339,18,0.07,2,2,0,2,4828,50000,19428,21179,0,71,29,0,0.00,0.60,0.18,0.00
2016-10-01 07:30:00,2,12760,54,0.29,2,2,0,2,3861,41448,11694,7768,0,71,28,71,0.00,0.90,0.26,0.25
2016-10-01 07:40:00,2,28977,12,0.03,2,2,0,2,7428,44494,11137,30848,0,41,19,0,0.00,0.15,0.05,0.00
2016-10-01 07:50:00,2,4558,72,0.69,2,2,0,2,1720,7022,1766,4762,71,77,2,71,0.10,2.35,0.80,0.30
2016-10-01 08:00:00,2,3844,71,0.99,2,2,0,2,1948,7640,1906,3020,71,71,0,71,0.05,2.85,0.91,0.55
2016-10-01 08:10:00,2,8528,71,0.26,2,2,0,2,2377,16602,4533,7440,71,71,0,71,0.00,0.75,0.26,0.17
2016-10-01 08:20:00,2,2913,71,1.14,2,2,0,2,898,5000,1425,2754,71,71,0,71,0.20,3.70,1.17,0.55
2016-10-01 08:30:00,2,2755,71,0.67,2,2,0,2,1491,4668,1082,2324,71,71,0,71,0.10,1.70,0.43,0.68
2016-10-01 08:40:00,2,4254,71,0.60,2,2,0,2,1230,8913,2251,4090,71,71,0,71,0.00,2.25,0.68,0.32
2016-10-01 08:50:00,2,6518,71,0.14,2,2,0,2,3985,11621,2160,5894,71,71,0,71,0.00,0.45,0.15,0.10
2016-10-01 09:00:00,2,4555,71,0.57,2,2,0,2,2338,9175,2039,3929,71,71,0,71,0.00,1.45,0.46,0.57
2016-10-01 09:10:00,2,5277,74,0.29,2,2,0,2,2086,8032,1657,5312,71,77,3,74,0.10,0.90,0.22,0.20
2016-10-01 09:20:00,2,5485,72,0.37,2,2,0,2,1651,8863,2263,5711,71,77,2,71,0.00,1.25,0.40,0.15
2016-10-01 09:30:00,2,7143,74,0.15,2,2,0,2,3732,11581,2596,6933,71,77,3,74,0.00,0.30,0.11,0.15
2016-10-01 09:40:00,2,10613,68,0.09,2,2,0,2,4420,19198,3858,9996,41,77,15,77,0.00,0.20,0.06,0.08
2016-10-01 09:50:00,2,26376,6,0.00,2,2,0,2,13812,40970,7837,25406,0,54,16,0,0.00,0.00,0.00,0.00
2016-10-01 10:00:00,2,36974,0,0.00,2,2,0,2,22808,46135,7722,39616,0,0,0,0,0.00,0.00,0.00,0.00
2016-10-01 10:10:00,2,41488,0,0.00,2,2,0,2,24960,50000,8207,43816,0,0,0,0,0.00,0.00,0.00,0.00
2016-10-01 10:20:00,2,48875,0,0.00,2,2,0,2,44987,50000,1620,49975,0,0,0,0,0.00,0.00,0.00,0.00
2016-10-01 10:30:00,2,36578,0,0.00,2,2,0,2,23159,48654,7041,36704,0,0,0,0,0.00,0.00,0.00,0.00
2016-10-01 10:40:00,2,35957,0,0.00,2,2,0,2,25901,47117,7084,35057,0,0,0,0,0.00,0.00,0.00,0.00
2016-10-01 10:50:00,2,48065,0,0.00,2,2,0,2,44756,50000,2072,48961,0,0,0,0,0.00,0.00,0.00,0.00
2016-10-01 11:00:00,2,29971,0,0.00,2,2,0,2,14453,42784,8985,30382,0,0,0,0,0.00,0.00,0.00,0.00
2016-10-01 11:10:00,2,37677,0,0.00,2,2,0,2,23345,50000,7754,37263,0,0,0,0,0.00,0.00,0.00,0.00
2016-10-01 11:20:00,2,45298,0,0.00,2,2,0,2,37142,50000,3712,45980,0,0,0,0,0.00,0.00,0.00,0.00
2016-10-01 11:30:00,2,26260,8,0.00,2,2,0,2,10109,43643,12062,27848,0,41,16,0,0.00,0.00,0.00,0.00
2016-10-01 11:40:00,2,13674,69,0.01,2,2,0,2,7198,20799,5003,12804,41,77,14,77,0.00,0.05,0.02,0.00
2016-10-01 11:50:00,2,32005,45,0.00,2,2,0,2,14909,45101,9325,32465,0,77,37,71,0.00,0.00,0.00,0.00
2016-10-01 12:00:00,2,33043,0,0.00,2,2,0,2,29964,40856,3319,31679,0,0,0,0,0.00,0.00,0.00,0.00
2016-10-01 12:10:00,2,40187,0,0.00,2,2,0,2,28833,45063,5185,42108,0,0,0,0,0.00,0.00,0.00,0.00
2016-10-01 12:20:00,2,38982,0,0.00,2,2,0,2,33015,43688,3609,39080,0,0,0,0,0.00,0.00,0.00,0.00
2016-10-01 12:30:00,2,43070,0,0.00,2,2,0,2,37879,50000,4288,43304,0,0,0,0,0.00,0.00,0.00,0.00
2016-10-01 12:40:00,2,36929,0,0.00,2,2,0,2,32070,41102,2930,37462,0,0,0,0,0.00,0.00,0.00,0.00
2016-10-01 12:50:00,2,39493,0,0.00,2,2,0,2,32532,44578,4325,39608,0,0,0,0,0.00,0.00,0.00,0.00
2016-10-01 13:00:00,2,38208,0,0.00,2,2,0,2,33380,43375,3491,38534,0,0,0,0,0.00,0.00,0.00,0.00
2016-10-01 13:10:00,2,42239,0,0.00,2,2,0,2,33497,49427,4243,43952,0,0,0,0,0.00,0.00,0.00,0.00
2016-10-01 13:20:00,2,36988,0,0.00,2,2,0,2,27408,43273,4790,38397,0,0,0,0,0.00,0.00,0.00,0.00
2016-10-01 13:30:00,2,29933,0,0.00,2,2,0,2,20793,41486,6055,30756,0,0,0,0,0.00,0.00,0.00,0.00
2016-10-01 13:40:00,2,27187,12,0.00,2,2,0,2,10619,38663,8724,27490,0,41,19,0,0.00,0.00,0.00,0.00
2016-10-01 13:50:00,2,18789,0,0.00,2,2,0,2,13408,26218,3486,17931,0,0,0,0,0.00,0.00,0.00,0.00
2016-10-01 14:00:00,2,25915,0,0.00,2,2,0,2,16527,33461,5430,26130,0,0,0,0,0.00,0.00,0.00,0.00
2016-10-01 14:10:00,2,42012,0,0.00,2,2,0,2,28476,48059,5930,44336,0,0,0,0,0.00,0.00,0.00,0.00
2016-10-01 14:20:00,2,44696,0,0.00,2,2,0,2,34647,50000,5578,47079,0,0,0,0,0.00,0.00,0.00,0.00
2016-10-01 14:30:00,2,35074,0,0.00,2,2,0,2,30514,41187,3453,35571,0,0,0,0,0.00,0.00,0.00,0.00
2016-10-01 14:40:00,2,43027,0,0.00,2,2,0,2,38697,50000,3700,42724,0,0,0,0,0.00,0.00,0.00,0.00
2016-10-01 14:50:00,2,48909,0,0.00,2,2,0,2,44349,50000,1688,49825,0,0,0,0,0.00,0.00,0.00,0.00
2016-10-01 15:00:00,2,47246,0,0.00,2,2,0,2,39422,50000,3588,49626,0,0,0,0,0.00,0.00,0.00,0.00
2016-10-01 15:10:00,2,46110,0,0.00,2,2,0,2,42022,50000,3251,46236,0,0,0,0,0.00,0.00,0.00,0.00
2016-10-01 15:20:00,2,46730,0,0.00,2,2,0,2,40212,50000,3141,47338,0,0,0,0,0.00,0.00,0.00,0.00
2016-10-01 15:30:00,2,44930,0,0.00,2,2,0,2,36889,50000,4353,45888,0,0,0,0,0.00,0.00,0.00,0.00
2016-10-01 15:40:00,2,43921,0,0.00,2,2,0,2,38637,49423,3351,43946,0,0,0,0,0.00,0.00,0.00,0.00
2016-10-01 15:50:00,2,46151,0,0.00,2,2,0,2,39501,50000,2998,46393,0,0,0,0,0.00,0.00,0.00,0.00
2016-10-01 16:00:00,2,48459,0,0.00,2,2,0,2,45937,50000,1419,48726,0,0,0,0,0.00,0.00,0.00,0.00
2016-10-01 16:10:00,2,47423,0,0.00,2,2,0,2,43461,49979,1670,47601,0,0,0,0,0.00,0.00,0.00,0.00
2016-10-01 16:20:00,2,47331,0,0.00,2,2,0,2,43326,50000,2565,48011,0,0,0,0,0.00,0.00,0.00,0.00
2016-10-01 16:30:00,2,48622,0,0.00,2,2,0,2,44228,50000,1692,48922,0,0,0,0,0.00,0.00,0.00,0.00
2016-10-01 16:40:00,2,47978,0,0.00,2,2,0,2,43600,50000,2351,49128,0,0,0,0,0.00,0.00,0.00,0.00
2016-10-01 16:50:00,2,48419,0,0.00,2,2,0,2,45850,50000,1670,49202,0,0,0,0,0.00,0.00,0.00,0.00
2016-10-01 17:00:00,2,46798,0,0.00,2,2,0,2,40582,50000,2999,47426,0,0,0,0,0.00,0.00,0.00,0.00
2016-10-01 17:10:00,2,44424,0,0.00,2,2,0,2,36058,48685,3419,45117,0,0,0,0,0.00,0.00,0.00,0.00
2016-10-01 17:20:00,2,46723,0,0.00,2,2,0,2,35863,50000,4224,48354,0,0,0,0,0.00,0.00,0.00,0.00
2016-10-01 17:30:00,2,48948,0,0.00,2,2,0,2,45381,50000,1553,49906,0,0,0,0,0.00,0.00,0.00,0.00
2016-10-01 17:40:00,2,49348,0,0.00,2,2,0,2,47559,50000,900,49874,0,0,0,0,0.00,0.00,0.00,0.00
2016-10-01 17:50:00,2,49813,0,0.00,2,2,0,2,49169,50000,293,49978,0,0,0,0,0.00,0.00,0.00,0.00
2016-10-01 18:00:00,2,48954,0,0.00,2,2,0,2,46462,50000,1117,49210,0,0,0,0,0.00,0.00,0.00,0.00
2016-10-01 18:10:00,2,45397,0,0.00,2,2,0,2,38267,50000,3164,45283,0,0,0,0,0.00,0.00,0.00,0.00
2016-10-01 18:20:00,2,41383,0,0.00,2,2,0,2,37840,46999,2492,41238,0,0,0,0,0.00,0.00,0.00,0.00
2016-10-01 18:30:00,2,45396,0,0.00,2,2,0,2,36160,50000,4712,47270,0,0,0,0,0.00,0.00,0.00,0.00
2016-10-01 18:40:00,2,43142,0,0.00,2,2,0,2,35076,47599,3164,43728,0,0,0,0,0.00,0.00,0.00,0.00
2016-10-01 18:50:00,2,37653,0,0.00,2,2,0,2,33548,41244,2365,38508,0,0,0,0,0.00,0.00,0.00,0.00
2016-10-01 19:00:00,2,40821,0,0.00,2,2,0,2,36792,42977,1878,41571,0,0,0,0,0.00,0.00,0.00,0.00
2016-10-01 19:10:00,2,47391,0,0.00,2,2,0,2,44117,50000,1943,47553,0,0,0,0,0.00,0.00,0.00,0.00
2016-10-01 19:20:00,2,43012,0,0.00,2,2,0,2,34243,49439,4191,43311,0,0,0,0,0.00,0.00,0.00,0.00
2016-10-01 19:30:00,2,44368,0,0.00,2,2,0,2,37894,49253,4135,45836,0,0,0,0,0.00,0.00,0.00,0.00
2016-10-01 19:40:00,2,47281,0,0.00,2,2,0,2,40076,50000,3089,47980,0,0,0,0,0.00,0.00,0.00,0.00
2016-10-01 19:50:00,2,47958,0,0.00,2,2,0,2,42537,50000,2534,49540,0,0,0,0,0.00,0.00,0.00,0.00
2016-10-01 20:00:00,2,45946,0,0.00,2,2,0,2,37911,50000,4213,46612,0,0,0,0,0.00,0.00,0.00,0.00
2016-10-01 20:10:00,2,44381,0,0.00,2,2,0,2,36599,48165,3632,46030,0,0,0,0,0.00,0.00,0.00,0.00
2016-10-01 20:20:00,2,45814,0,0.00,2,2,0,2,40762,50000,3159,45227,0,0,0,0,0.00,0.00,0.00,0.00
2016-10-01 20:30:00,2,48998,0,0.00,2,2,0,2,44739,50000,1868,50000,0,0,0,0,0.00,0.00,0.00,0.00
2016-10-01 20:40:00,2,45912,0,0.00,2,2,0,2,42425,49714,2616,45740,0,0,0,0,0.00,0.00,0.00,0.00
2016-10-01 20:50:00,2,48845,0,0.00,2,2,0,2,46651,50000,1109,48838,0,0,0,0,0.00,0.00,0.00,0.00
2016-10-01 21:00:00,2,46156,0,0.00,2,2,0,2,39159,49949,3535,47656,0,0,0,0,0.00,0.00,0.00,0.00
2016-10-01 21:10:00,2,46791,0,0.00,2,2,0,2,39527,49866,3270,48318,0,0,0,0,0.00,0.00,0.00,0.00
2016-10-01 21:20:00,2,46231,0,0.00,2,2,0,2,43383,49066,2023,45708,0,0,0,0,0.00,0.00,0.00,0.00
2016-10-01 21:30:00,2,47774,0,0.00,2,2,0,2,44810,50000,1507,47973,0,0,0,0,0.00,0.00,0.00,0.00
2016-10-01 21:40:00,2,47821,0,0.00,2,2,0,2,45134,50000,1716,47714,0,0,0,0,0.00,0.00,0.00,0.00
2016-10-01 21:50:00,2,48636,0,0.00,2,2,0,2,45007,50000,1605,49410,0,0,0,0,0.00,0.00,0.00,0.00
2016-10-01 22:00:00,2,46984,0,0.00,2,2,0,2,41517,50000,2677,47730,0,0,0,0,0.00,0.00,0.00,0.00
2016-10-01 22:10:00,2,47994,0,0.00,2,2,0,2,44229,50000,2139,48624,0,0,0,0,0.00,0.00,0.00,0.00
2016-10-01 22:20:00,2,45044,0,0.00,2,2,0,2,37302,50000,3958,45954,0,0,0,0,0.00,0.00,0.00,0.00
2016-10-01 22:30:00,2,44167,0,0.00,2,2,0,2,34205,50000,5222,45417,0,0,0,0,0.00,0.00,0.00,0.00
2016-10-01 22:40:00,2,44813,0,0.00,2,2,0,2,37490,50000,4046,46424,0,0,0,0,0.00,0.00,0.00,0.00
2016-10-01 22:50:00,2,44180,0,0.00,2,2,0,2,36923,49179,3322,43845,0,0,0,0,0.00,0.00,0.00,0.00
2016-10-01 23:00:00,2,44870,0,0.00,2,2,0,2,41355,48256,2401,45382,0,0,0,0,0.00,0.00,0.00,0.00
2016-10-01 23:10:00,2,45287,0,0.00,2,2,0,2,38215,50000,3650,44608,0,0,0,0,0.00,0.00,0.00,0.00
2016-10-01 23:20:00,2,46753,0,0.00,2,2,0,2,43779,50000,1931,47310,0,0,0,0,0.00,0.00,0.00,0.00
2016-10-01 23:30:00,2,46430,0,0.00,2,2,0,2,43786,48878,1515,46400,0,0,0,0,0.00,0.00,0.00,0.00
2016-10-01 23:40:00,2,46726,0,0.00,2,2,0,2,40871,50000,2837,47768,0,0,0,0,0.00,0.00,0.00,0.00
2016-10-01 23:50:00,2,39730,0,0.00,2,2,0,2,35087,45045,3280,39975,0,0,0,0,0.00,0.00,0.00,0.00
